FW0527 Weather Reports


time (UTC)temp
C
wind
direction
speed
KPH
gust
KPH
rain 1hr
cm
rain 24hr
cm
rain mn
cm
humidity
%
barometer
mb
20260903201534 28 330 0.0 19.3 0.00 0.00 0.00 19 1012.9
20260903200043 28 317 3.2 19.3 0.00 0.00 0.00 19 1013.0
20260903194540 27 360 0.0 6.4 0.00 0.00 0.00 19 1013.1
20260903193027 27 308 0.0 20.9 0.00 0.00 0.00 18 1013.4
20260903191525 27 313 0.0 14.5 0.00 0.00 0.00 18 1013.3
20260903190026 27 283 0.0 17.7 0.00 0.00 0.00 17 1013.4
20260903184524 27 300 0.0 17.7 0.00 0.00 0.00 15 1013.7
20260903183036 27 266 1.6 19.3 0.00 0.00 0.00 14 1013.8
20260903181526 26 349 0.0 12.9 0.00 0.00 0.00 14 1014.0
20260903180019 26 322 0.0 19.3 0.00 0.00 0.00 14 1013.9
20260903174521 26 313 0.0 14.5 0.00 0.00 0.00 15 1014.0
20260903173013 26 287 0.0 6.4 0.00 0.00 0.00 16 1014.0
20260903171517 25 315 0.0 8.0 0.00 0.00 0.00 17 1013.7
20260903170013 24 296 0.0 8.0 0.00 0.00 0.00 18 1013.6
20260903164502 23 347 0.0 0.0 0.00 0.00 0.00 21 1013.5
20260903163057 22 332 0.0 0.0 0.00 0.00 0.00 25 1013.4
20260903161611 21 81 0.0 0.0 0.00 0.00 0.00 30 1013.4
20260903160049 19 87 0.0 0.0 0.00 0.00 0.00 33 1013.5
20260903154544 16 89 0.0 0.0 0.00 0.00 0.00 38 1013.6
20260903153039 13 89 0.0 0.0 0.00 0.00 0.00 43 1013.5
20260903151538 12 103 0.0 0.0 0.00 0.00 0.00 41 1013.7
20260903150031 11 103 0.0 0.0 0.00 0.00 0.00 40 1013.9
20260903144528 10 103 0.0 0.0 0.00 0.00 0.00 39 1013.7
20260903143036 9 103 0.0 0.0 0.00 0.00 0.00 38 1013.7
20260903141525 8 103 0.0 0.0 0.00 0.00 0.00 35 1013.4
20260903140025 8 103 0.0 0.0 0.00 0.00 0.00 33 1013.1
20260903134527 8 103 0.0 0.0 0.00 0.00 0.00 31 1012.9
20260903133024 8 103 0.0 0.0 0.00 0.00 0.00 30 1012.9
20260903131524 8 103 0.0 0.0 0.00 0.00 0.00 29 1012.8
20260903130022 8 103 0.0 0.0 0.00 0.00 0.00 29 1012.6
20260903124544 8 103 0.0 0.0 0.00 0.00 0.00 29 1012.7
20260903123020 8 103 0.0 0.0 0.00 0.00 0.00 28 1012.6
20260903121537 8 103 0.0 0.0 0.00 0.00 0.00 28 1012.7
20260903120018 8 103 0.0 0.0 0.00 0.00 0.00 28 1012.6
20260903114520 8 103 0.0 0.0 0.00 0.00 0.00 28 1012.6
20260903113019 8 103 0.0 0.0 0.00 0.00 0.00 27 1012.8
20260903111513 8 103 0.0 0.0 0.00 0.00 0.00 26 1013.0
20260903110012 8 103 0.0 0.0 0.00 0.00 0.00 27 1013.0
20260903104511 8 103 0.0 0.0 0.00 0.00 0.00 27 1013.2
20260903103010 8 103 0.0 0.0 0.00 0.00 0.00 28 1013.1
20260903101509 8 103 0.0 0.0 0.00 0.00 0.00 29 1013.1
20260903100018 8 103 0.0 0.0 0.00 0.00 0.00 30 1013.4
20260903094502 8 103 0.0 0.0 0.00 0.00 0.00 31 1013.5
20260903093103 8 103 0.0 0.0 0.00 0.00 0.00 32 1013.6
20260903091603 8 103 0.0 0.0 0.00 0.00 0.00 32 1013.7
20260903090055 8 103 0.0 0.0 0.00 0.00 0.00 32 1013.7
20260903084552 9 103 0.0 0.0 0.00 0.00 0.00 31 1013.8
20260903083057 9 103 0.0 0.0 0.00 0.00 0.00 31 1014.0
20260903081550 9 103 0.0 0.0 0.00 0.00 0.00 30 1014.0
20260903080045 10 103 0.0 0.0 0.00 0.00 0.00 32 1014.1
20260903074544 10 103 0.0 0.0 0.00 0.00 0.00 37 1014.2
20260903073046 10 103 0.0 0.0 0.00 0.00 0.00 43 1014.2
20260903071538 10 103 0.0 0.0 0.00 0.00 0.00 41 1014.2
20260903070035 10 103 0.0 0.0 0.00 0.00 0.00 41 1014.1
20260903064535 10 103 0.0 0.0 0.00 0.00 0.00 36 1014.1
20260903063034 10 103 0.0 0.0 0.00 0.00 0.00 42 1014.1
20260903061535 10 103 0.0 0.0 0.00 0.00 0.00 49 1014.1
20260903060032 10 55 0.0 0.0 0.00 0.00 0.00 47 1013.9
20260903054533 10 345 0.0 0.0 0.00 0.00 0.00 45 1013.9
20260903053032 11 345 0.0 0.0 0.00 0.00 0.00 51 1014.0
20260903051531 11 345 0.0 0.0 0.00 0.00 0.00 56 1014.1
20260903050030 12 345 0.0 0.0 0.00 0.00 0.00 61 1014.0
20260903044530 12 345 0.0 0.0 0.00 0.00 0.00 62 1014.1
20260903043029 12 345 0.0 0.0 0.00 0.00 0.00 61 1014.1
20260903041529 13 345 0.0 0.0 0.00 0.00 0.00 60 1014.0
20260903040029 13 345 0.0 0.0 0.00 0.00 0.00 55 1013.8
20260903034526 15 345 0.0 0.0 0.00 0.00 0.00 54 1013.6
20260903033026 16 345 0.0 0.0 0.00 0.00 0.00 54 1013.6
20260903031525 17 345 0.0 0.0 0.00 0.00 0.00 53 1013.4
20260903030029 17 345 0.0 0.0 0.00 0.00 0.00 48 1013.3
20260903024525 18 345 0.0 0.0 0.00 0.00 0.00 48 1013.3
20260903023024 19 345 0.0 0.0 0.00 0.00 0.00 47 1013.2
20260903021523 20 308 0.0 0.0 0.00 0.00 0.00 42 1013.1
20260903020035 21 309 0.0 0.0 0.00 0.00 0.00 39 1013.2
20260903014524 21 306 0.0 0.0 0.00 0.00 0.00 35 1013.2
20260903013020 21 300 0.0 0.0 0.00 0.00 0.00 35 1013.3
20260903011520 22 272 0.0 0.0 0.00 0.00 0.00 34 1013.3
20260903010018 22 322 0.0 9.7 0.00 0.00 0.00 33 1013.4
20260903004517 23 294 0.0 14.5 0.00 0.00 0.00 33 1013.4
20260903003016 23 339 0.0 16.1 0.00 0.00 0.00 32 1013.4
20260903001514 24 304 4.8 17.7 0.00 0.00 0.00 29 1013.4
20260903000013 25 327 1.6 16.1 0.00 0.00 0.00 27 1013.4
20260902234512 25 208 0.0 22.5 0.00 0.00 0.00 22 1013.4
20260902233012 25 305 0.0 19.3 0.00 0.00 0.00 22 1013.6
20260902231508 25 212 1.6 19.3 0.00 0.00 0.00 21 1013.6
20260902230007 26 319 6.4 24.1 0.00 0.00 0.00 23 1013.7
20260902224506 26 264 0.0 25.7 0.00 0.00 0.00 23 1013.7
20260902223003 26 317 1.6 20.9 0.00 0.00 0.00 20 1013.9
20260902221502 27 294 3.2 17.7 0.00 0.00 0.00 21 1014.2
20260902214558 27 324 1.6 22.5 0.00 0.00 0.00 18 1014.3
20260902213056 28 319 6.4 24.1 0.00 0.00 0.00 15 1014.3
20260902211556 29 307 3.2 20.9 0.00 0.00 0.00 15 1014.3
20260902210052 29 319 0.0 22.5 0.00 0.00 0.00 16 1014.5
20260902204630 29 293 0.0 8.0 0.00 0.00 0.00 17 1014.7
20260902203050 29 288 0.0 19.3 0.00 0.00 0.00 17 1015.0